When you browse on this site, cookies collect data to enhance your experience and personalize the content and advertising you see.
Visit our Privacy Policy to learn more. By continuing to use the site, you agree to this use of cookies and data.
  • In United Kingdom
  • List of Countries
  • For 7 days
  • Water Temperature
  • Satellite Maps
  • Weather Map
  • Weather Widgets
  • user-avatar
    Login

    Hourly Weather Dhaka

    Today, 24 March, Sunday

    Time Temperature Precipitation Wind Pressure Humidity
    00:00 +27°C° 0 mm 1 mps 756 mmHg 63%
    01:00 +27°C° 0 mm 1 mps 756 mmHg 68%
    02:00 +26°C° 0 mm 2 mps 755 mmHg 73%
    03:00 +26°C° 0 mm 2 mps 755 mmHg 78%
    04:00 +25°C° 0 mm 2 mps 755 mmHg 78%
    05:00 +25°C° 0 mm 1 mps 756 mmHg 78%
    06:00 +22°C° 0 mm 0 mps 756 mmHg 79%
    07:00 +26°C° 0 mm 1 mps 757 mmHg 70%
    08:00 +29°C° 0 mm 1 mps 757 mmHg 60%
    09:00 +31°C° 0 mm 1 mps 757 mmHg 50%
    10:00 +34°C° 0 mm 2 mps 757 mmHg 38%
    11:00 +35°C° 0 mm 2 mps 757 mmHg 27%
    12:00 +34°C° 0 mm 0 mps 757 mmHg 27%
    13:00 +36°C° 0 mm 1 mps 757 mmHg 24%
    14:00 +38°C° 0 mm 2 mps 756 mmHg 20%
    15:00 +38°C° 0 mm 2 mps 755 mmHg 17%
    16:00 +37°C° 0 mm 2 mps 755 mmHg 18%
    17:00 +35°C° 0 mm 1 mps 755 mmHg 19%
    18:00 +33°C° 0 mm 1 mps 755 mmHg 20%
    19:00 +32°C° 0 mm 1 mps 755 mmHg 21%
    20:00 +31°C° 0 mm 2 mps 755 mmHg 22%
    21:00 +30°C° 0 mm 2 mps 756 mmHg 24%
    22:00 +29°C° 0 mm 2 mps 756 mmHg 30%
    23:00 +28°C° 0 mm 2 mps 756 mmHg 37%

    Tomorrow, 25 March, Monday

    Time Temperature Precipitation Wind Pressure Humidity
    00:00 +27°C° 0 mm 2 mps 756 mmHg 44%
    01:00 +27°C° 0 mm 2 mps 756 mmHg 48%
    02:00 +27°C° 0 mm 2 mps 756 mmHg 52%
    03:00 +27°C° 0 mm 2 mps 755 mmHg 56%
    04:00 +26°C° 0 mm 2 mps 756 mmHg 57%
    05:00 +25°C° 0 mm 1 mps 756 mmHg 59%
    06:00 +25°C° 0 mm 1 mps 756 mmHg 61%
    07:00 +27°C° 0 mm 1 mps 756 mmHg 54%
    08:00 +29°C° 0 mm 2 mps 757 mmHg 48%
    09:00 +32°C° 0 mm 2 mps 758 mmHg 41%
    10:00 +34°C° 0 mm 2 mps 757 mmHg 34%
    11:00 +36°C° 0 mm 2 mps 757 mmHg 27%
    12:00 +38°C° 0 mm 2 mps 757 mmHg 19%
    13:00 +39°C° 0 mm 2 mps 756 mmHg 17%
    14:00 +39°C° 0 mm 2 mps 755 mmHg 15%
    15:00 +40°C° 0 mm 2 mps 754 mmHg 13%
    16:00 +38°C° 0 mm 2 mps 754 mmHg 14%
    17:00 +36°C° 0 mm 1 mps 753 mmHg 16%
    18:00 +33°C° 0 mm 0 mps 753 mmHg 18%
    19:00 +34°C° 0 mm 1 mps 754 mmHg 18%
    20:00 +34°C° 0 mm 2 mps 754 mmHg 19%
    21:00 +33°C° 0 mm 3 mps 755 mmHg 20%
    22:00 +31°C° 0 mm 3 mps 755 mmHg 24%
    23:00 +30°C° 0 mm 3 mps 755 mmHg 29%

    Day after tomorrow, 26 March, Tuesday

    Time Temperature Precipitation Wind Pressure Humidity
    00:00 +29°C° 0 mm 3 mps 755 mmHg 33%
    01:00 +28°C° 0 mm 3 mps 755 mmHg 33%
    02:00 +28°C° 0 mm 3 mps 755 mmHg 34%
    03:00 +27°C° 0 mm 3 mps 755 mmHg 34%
    04:00 +27°C° 0 mm 3 mps 755 mmHg 35%
    05:00 +27°C° 0 mm 3 mps 755 mmHg 35%
    06:00 +26°C° 0 mm 2 mps 755 mmHg 36%
    07:00 +29°C° 0 mm 2 mps 756 mmHg 33%
    08:00 +31°C° 0 mm 2 mps 757 mmHg 31%
    09:00 +34°C° 0 mm 2 mps 757 mmHg 28%
    10:00 +36°C° 0 mm 2 mps 757 mmHg 24%
    11:00 +38°C° 0 mm 2 mps 757 mmHg 21%
    12:00 +40°C° 0 mm 3 mps 757 mmHg 18%
    13:00 +40°C° 0 mm 3 mps 756 mmHg 17%
    14:00 +41°C° 0 mm 2 mps 755 mmHg 16%
    15:00 +41°C° 0 mm 2 mps 754 mmHg 15%
    16:00 +40°C° 0 mm 2 mps 754 mmHg 17%
    17:00 +39°C° 0 mm 2 mps 754 mmHg 19%
    18:00 +36°C° 0 mm 1 mps 754 mmHg 21%
    19:00 +36°C° 0 mm 2 mps 755 mmHg 25%
    20:00 +35°C° 0 mm 2 mps 756 mmHg 29%
    21:00 +34°C° 0 mm 3 mps 757 mmHg 33%
    22:00 +32°C° 0.3 mm 4 mps 757 mmHg 39%
    23:00 +29°C° 0.3 mm 4 mps 757 mmHg 44%

    27 March, Wednesday

    Time Temperature Precipitation Wind Pressure Humidity
    00:00 +28°C° 0.3 mm 5 mps 758 mmHg 50%
    01:00 +27°C° 0.4 mm 4 mps 757 mmHg 51%
    02:00 +27°C° 0.4 mm 3 mps 757 mmHg 53%
    03:00 +27°C° 0.4 mm 2 mps 756 mmHg 54%
    04:00 +27°C° 0.1 mm 2 mps 756 mmHg 55%
    05:00 +27°C° 0.1 mm 2 mps 757 mmHg 56%
    06:00 +26°C° 0.1 mm 2 mps 757 mmHg 58%
    07:00 +28°C° 0 mm 3 mps 758 mmHg 54%
    08:00 +29°C° 0 mm 4 mps 758 mmHg 49%
    09:00 +30°C° 0 mm 4 mps 759 mmHg 45%
    10:00 +33°C° 0 mm 4 mps 759 mmHg 41%
    11:00 +34°C° 0 mm 4 mps 758 mmHg 36%
    12:00 +36°C° 0 mm 4 mps 757 mmHg 31%
    13:00 +36°C° 0 mm 3 mps 756 mmHg 30%
    14:00 +36°C° 0 mm 3 mps 755 mmHg 29%
    15:00 +36°C° 0 mm 2 mps 754 mmHg 28%
    16:00 +35°C° 0.5 mm 2 mps 754 mmHg 33%
    17:00 +34°C° 0.5 mm 2 mps 754 mmHg 37%
    18:00 +32°C° 0.5 mm 1 mps 755 mmHg 41%
    19:00 +30°C° 1.9 mm 2 mps 755 mmHg 47%
    20:00 +29°C° 1.9 mm 3 mps 756 mmHg 54%
    21:00 +27°C° 1.9 mm 3 mps 757 mmHg 60%
    22:00 +27°C° 1.9 mm 3 mps 757 mmHg 62%
    23:00 +26°C° 1.9 mm 2 mps 757 mmHg 64%

    28 March, Thursday

    Time Temperature Precipitation Wind Pressure Humidity
    00:00 +26°C° 1.9 mm 2 mps 757 mmHg 66%
    01:00 +26°C° 0 mm 2 mps 757 mmHg 66%
    02:00 +26°C° 0 mm 2 mps 757 mmHg 66%
    03:00 +26°C° 0 mm 2 mps 756 mmHg 67%
    04:00 +25°C° 0 mm 2 mps 756 mmHg 68%
    05:00 +25°C° 0 mm 1 mps 757 mmHg 69%
    06:00 +25°C° 0 mm 1 mps 757 mmHg 69%
    07:00 +26°C° 0 mm 1 mps 758 mmHg 65%
    08:00 +28°C° 0 mm 2 mps 758 mmHg 60%
    09:00 +29°C° 0 mm 2 mps 759 mmHg 55%
    10:00 +31°C° 0 mm 2 mps 758 mmHg 50%
    11:00 +32°C° 0 mm 2 mps 758 mmHg 45%
    12:00 +34°C° 0 mm 2 mps 758 mmHg 40%
    13:00 +34°C° 0 mm 1 mps 757 mmHg 38%
    14:00 +34°C° 0 mm 1 mps 756 mmHg 35%
    15:00 +35°C° 0 mm 1 mps 755 mmHg 33%
    16:00 +34°C° 0 mm 1 mps 755 mmHg 35%
    17:00 +34°C° 0 mm 1 mps 755 mmHg 37%
    18:00 +33°C° 0 mm 1 mps 755 mmHg 39%
    19:00 +32°C° 0 mm 1 mps 755 mmHg 40%
    20:00 +31°C° 0 mm 1 mps 756 mmHg 41%
    21:00 +30°C° 0 mm 1 mps 757 mmHg 42%
    22:00 +30°C° 0 mm 1 mps 756 mmHg 45%
    23:00 +29°C° 0 mm 1 mps 756 mmHg 48%

    29 March, Friday

    Time Temperature Precipitation Wind Pressure Humidity
    00:00 +28°C° 0 mm 1 mps 756 mmHg 51%
    01:00 +26°C° 0 mm 0 mps 756 mmHg 53%
    02:00 +25°C° 0 mm 0 mps 755 mmHg 55%
    03:00 +25°C° 0 mm 0 mps 755 mmHg 57%
    04:00 +27°C° 0 mm 1 mps 755 mmHg 58%
    05:00 +26°C° 0 mm 1 mps 755 mmHg 59%
    06:00 +26°C° 0 mm 1 mps 756 mmHg 61%
    07:00 +28°C° 0 mm 1 mps 756 mmHg 56%
    08:00 +30°C° 0 mm 2 mps 757 mmHg 51%
    09:00 +33°C° 0 mm 3 mps 757 mmHg 46%
    10:00 +34°C° 0 mm 2 mps 757 mmHg 40%
    11:00 +35°C° 0 mm 2 mps 757 mmHg 35%
    12:00 +37°C° 0 mm 2 mps 756 mmHg 29%
    13:00 +37°C° 0 mm 2 mps 755 mmHg 27%
    14:00 +38°C° 0 mm 2 mps 755 mmHg 25%
    15:00 +38°C° 0 mm 2 mps 754 mmHg 23%
    16:00 +36°C° 0 mm 1 mps 754 mmHg 25%
    17:00 +36°C° 0 mm 1 mps 754 mmHg 27%
    18:00 +33°C° 0 mm 0 mps 754 mmHg 29%
    19:00 +34°C° 0 mm 1 mps 754 mmHg 31%
    20:00 +34°C° 0 mm 2 mps 755 mmHg 34%
    21:00 +33°C° 0 mm 3 mps 755 mmHg 37%
    22:00 +31°C° 0 mm 3 mps 755 mmHg 44%
    23:00 +30°C° 0 mm 3 mps 755 mmHg 51%
    Show more